Location: Newark
(25.6108°S, 54.5803°W)
Time: 08:20:21
(UTC+00:00)

Tiros 1 - Pass Details

Date: 01 November 2020
Orbit: 630 x 664 km, 48.4° (Epoch: 29 November)

Event Time Altitude Azimuth Distance (km) Brightness Sun altitude
Rises 02:00:51 0° 246° (WSW) 3,002 11.1 -45.3°
Enters shadow 02:01:08 - 248° (WSW) 2,907 11.0 -45.3°
Reaches altitude 10° 02:03:52 10° 265° (W) 2,077 - -45.6°
Maximum altitude 02:07:03 18° 307° (NW) 1,608 - -45.9°
Drops below altitude 10° 02:10:13 10° 349° (N) 2,050 - -46.2°
Sets 02:13:11 0° 8° (N) 2,945 - -46.5°
